Luverne, MN

6:57 PM CST on February 27, 2017 (GMT -0600)
Luverne

Weather History for KLYV - April, 2013

Change the Weather History Date:

Tuesday, April 23, 2013

  Actual Average (KPQN) Record (KPQN)
Temperature  
Mean Temperature 26 °F -  
Max Temperature 32 °F 58 °F 87 °F (2009)
Min Temperature 19 °F 37 °F 17 °F (2013)
Degree Days  
Heating Degree Days 40    
Moisture  
Dew Point 20 °F    
Average Humidity 74    
Maximum Humidity 93    
Minimum Humidity 60    
Precipitation  
Precipitation 0.00 in - - ()
Sea Level Pressure  
Sea Level Pressure 30.20 in    
Wind  
Wind Speed 13 mph (NNW)    
Max Wind Speed 20 mph    
Max Gust Speed 26 mph    
Visibility 10 miles    
Events      
Averages and records for this station are not official NWS values.
T = Trace of Precipitation, MM = Missing Value Source: NWS Daily Summary

Daily Weather History Graph

Daily Weather History Graph

Search for Another Location

Airport or City:

Trip Planner

Search our weather history database for the weather conditions in past years. The results will help you decide how hot, cold, wet, or windy it might be!

Date:

Astronomy

Apr. 23, 2013 Rise Set
Actual Time 6:28 AM CDT 8:18 PM CDT
Civil Twilight 5:58 AM CDT 8:48 PM CDT
Nautical Twilight 5:20 AM CDT 9:26 PM CDT
Astronomical Twilight 4:40 AM CDT 10:07 PM CDT
Moon 6:11 PM CDT (4/23) 5:01 AM CDT (4/23)
Length of Visible Light 14h 50m
Length of Day
13h 49m
Waxing Gibbous, 94% of the Moon is Illuminated
Apr 23
Waxing Gibbous
Apr 25
Full
May 2
Last Quarter
May 9
New
May 17
First Quarter

Hourly Weather History & Observations

Time (CDT) Temp. Windchill Dew Point Humidity Pressure Visibility Wind Dir Wind Speed Gust Speed Precip Events Conditions
12:16 AM 28.4 °F 16.2 °F 23.0 °F 80% 30.27 in 10.0 mi North 17.3 mph 21.9 mph N/A   Mostly Cloudy
12:37 AM 28.4 °F 16.2 °F 23.0 °F 80% 30.26 in 10.0 mi North 17.3 mph - N/A   Overcast
12:57 AM 28.4 °F 15.4 °F 23.0 °F 80% 30.24 in 10.0 mi North 19.6 mph 26.5 mph N/A   Overcast
1:16 AM 28.4 °F 16.2 °F 21.2 °F 74% 30.25 in 10.0 mi North 17.3 mph 25.3 mph N/A   Overcast
1:37 AM 28.4 °F 17.5 °F 21.2 °F 74% 30.26 in 10.0 mi North 13.8 mph - N/A   Overcast
1:57 AM 28.4 °F 17.5 °F 21.2 °F 74% 30.26 in 10.0 mi North 13.8 mph - N/A   Scattered Clouds
2:16 AM 26.6 °F 16.2 °F 19.4 °F 74% 30.26 in 10.0 mi North 11.5 mph - N/A   Clear
2:37 AM 26.6 °F 16.8 °F 19.4 °F 74% 30.25 in 10.0 mi North 10.4 mph - N/A   Clear
2:57 AM 26.6 °F 14.7 °F 19.4 °F 74% 30.24 in 10.0 mi North 15.0 mph - N/A   Clear
3:16 AM 26.6 °F 14.7 °F 19.4 °F 74% 30.22 in 10.0 mi North 15.0 mph - N/A   Clear
3:36 AM 26.6 °F 14.7 °F 19.4 °F 74% 30.23 in 10.0 mi NNW 15.0 mph - N/A   Clear
3:57 AM 23.0 °F 11.7 °F 19.4 °F 86% 30.24 in 10.0 mi NNW 11.5 mph - N/A   Clear
4:16 AM 23.0 °F 12.4 °F 19.4 °F 86% 30.24 in 10.0 mi NNW 10.4 mph - N/A   Clear
4:36 AM 23.0 °F 11.7 °F 17.6 °F 80% 30.23 in 10.0 mi NNW 11.5 mph - N/A   Clear
4:57 AM 23.0 °F 12.4 °F 17.6 °F 80% 30.24 in 10.0 mi NNW 10.4 mph - N/A   Clear
5:16 AM 23.0 °F 13.1 °F 17.6 °F 80% 30.24 in 10.0 mi NNW 9.2 mph - N/A   Clear
5:37 AM 23.0 °F 13.1 °F 17.6 °F 80% 30.24 in 10.0 mi NNW 9.2 mph - N/A   Clear
5:56 AM 23.0 °F 13.1 °F 17.6 °F 80% 30.23 in 10.0 mi NNW 9.2 mph - N/A   Clear
6:17 AM 21.2 °F 11.7 °F 17.6 °F 86% 30.24 in 10.0 mi NNW 8.1 mph - N/A   Clear
6:37 AM 21.2 °F 10.9 °F 15.8 °F 80% 30.23 in 10.0 mi NNW 9.2 mph - N/A   Clear
6:56 AM 21.2 °F 10.9 °F 15.8 °F 80% 30.23 in 10.0 mi NNW 9.2 mph - N/A   Clear
7:17 AM 19.4 °F 8.6 °F 14.0 °F 80% 30.24 in 10.0 mi NNW 9.2 mph - N/A   Clear
7:37 AM 21.2 °F 10.1 °F 14.0 °F 74% 30.24 in 10.0 mi NNW 10.4 mph - N/A   Clear
7:56 AM 21.2 °F 9.5 °F 14.0 °F 74% 30.24 in 10.0 mi NNW 11.5 mph - N/A   Clear
8:17 AM 21.2 °F 8.3 °F 15.8 °F 80% 30.24 in 10.0 mi NNW 13.8 mph - N/A   Clear
8:37 AM 21.2 °F 8.3 °F 15.8 °F 80% 30.24 in 10.0 mi NNW 13.8 mph - N/A   Clear
8:56 AM 23.0 °F 10.1 °F 17.6 °F 80% 30.24 in 10.0 mi NNW 15.0 mph - N/A   Clear
9:17 AM 23.0 °F 11.1 °F 17.6 °F 80% 30.24 in 10.0 mi NNW 12.7 mph - N/A   Clear
9:37 AM 23.0 °F 11.1 °F 17.6 °F 80% 30.24 in 10.0 mi NNW 12.7 mph - N/A   Clear
9:56 AM 24.8 °F 14.0 °F 19.4 °F 80% 30.23 in 10.0 mi NNW 11.5 mph - N/A   Clear
10:17 AM 26.6 °F 15.7 °F 19.4 °F 74% 30.24 in 10.0 mi NNW 12.7 mph 16.1 mph N/A   Clear
10:37 AM 26.6 °F 15.2 °F 19.4 °F 74% 30.23 in 10.0 mi NNW 13.8 mph - N/A   Clear
10:56 AM 26.6 °F 14.7 °F 19.4 °F 74% 30.24 in 10.0 mi NNW 15.0 mph - N/A   Clear
11:17 AM 28.4 °F 18.0 °F 19.4 °F 69% 30.23 in 10.0 mi NNW 12.7 mph - N/A   Clear
11:37 AM 30.2 °F 20.8 °F 21.2 °F 69% 30.23 in 10.0 mi NNW 11.5 mph - N/A   Clear
11:56 AM 30.2 °F 19.3 °F 21.2 °F 69% 30.23 in 10.0 mi NNW 15.0 mph - N/A   Clear
12:17 PM 30.2 °F 19.8 °F 21.2 °F 69% 30.22 in 10.0 mi NNW 13.8 mph - N/A   Clear
12:37 PM 32.0 °F 21.6 °F 21.2 °F 64% 30.22 in 10.0 mi NNW 15.0 mph - N/A   Clear
12:56 PM 32.0 °F 22.5 °F 21.2 °F 64% 30.22 in 10.0 mi NNW 12.7 mph - N/A   Clear
1:17 PM 32.0 °F 23.0 °F 19.4 °F 60% 30.21 in 10.0 mi NNW 11.5 mph - N/A   Clear
1:37 PM 32.0 °F 22.1 °F 19.4 °F 60% 30.20 in 10.0 mi NNW 13.8 mph - N/A   Clear
1:56 PM 32.0 °F 22.1 °F 19.4 °F 60% 30.20 in 10.0 mi NNW 13.8 mph 18.4 mph N/A   Clear
2:17 PM 32.0 °F 22.5 °F 19.4 °F 60% 30.21 in 10.0 mi NNW 12.7 mph - N/A   Clear
2:37 PM 32.0 °F 21.6 °F 19.4 °F 60% 30.20 in 10.0 mi NNW 15.0 mph - N/A   Clear
2:57 PM 32.0 °F 22.1 °F 21.2 °F 64% 30.20 in 10.0 mi NNW 13.8 mph - N/A   Clear
3:16 PM 32.0 °F 22.1 °F 21.2 °F 64% 30.19 in 10.0 mi NNW 13.8 mph - N/A   Clear
3:37 PM 32.0 °F 21.2 °F 21.2 °F 64% 30.18 in 10.0 mi NNW 16.1 mph - N/A   Clear
3:57 PM 32.0 °F 21.6 °F 21.2 °F 64% 30.17 in 10.0 mi NNW 15.0 mph 21.9 mph N/A   Clear
4:16 PM 32.0 °F 22.5 °F 21.2 °F 64% 30.17 in 10.0 mi NNW 12.7 mph - N/A   Clear
4:37 PM 32.0 °F 22.5 °F 21.2 °F 64% 30.17 in 10.0 mi NNW 12.7 mph - N/A   Clear
4:56 PM 32.0 °F 22.5 °F 21.2 °F 64% 30.16 in 10.0 mi NNW 12.7 mph 19.6 mph N/A   Clear
5:16 PM 32.0 °F 21.6 °F 21.2 °F 64% 30.15 in 10.0 mi NNW 15.0 mph - N/A   Clear
5:37 PM 32.0 °F 21.2 °F 21.2 °F 64% 30.15 in 10.0 mi NNW 16.1 mph 19.6 mph N/A   Clear
5:56 PM 32.0 °F 22.5 °F 21.2 °F 64% 30.16 in 10.0 mi NW 12.7 mph - N/A   Clear
6:16 PM 32.0 °F 23.0 °F 21.2 °F 64% 30.15 in 10.0 mi NW 11.5 mph - N/A   Clear
6:37 PM 32.0 °F 23.0 °F 21.2 °F 64% 30.15 in 10.0 mi NNW 11.5 mph - N/A   Clear
6:56 PM 32.0 °F 24.2 °F 21.2 °F 64% 30.16 in 10.0 mi NW 9.2 mph - N/A   Clear
7:17 PM 32.0 °F 25.6 °F 23.0 °F 69% 30.15 in 10.0 mi NW 6.9 mph - N/A   Clear
7:36 PM 32.0 °F 25.6 °F 23.0 °F 69% 30.15 in 10.0 mi NW 6.9 mph - N/A   Clear
7:57 PM 32.0 °F 28.7 °F 23.0 °F 69% 30.14 in 10.0 mi NW 3.5 mph - N/A   Clear
8:17 PM 30.2 °F 26.7 °F 23.0 °F 75% 30.15 in 10.0 mi WNW 3.5 mph - N/A   Clear
8:37 PM 28.4 °F 24.6 °F 21.2 °F 74% 30.15 in 10.0 mi WNW 3.5 mph - N/A   Clear
8:57 PM 26.6 °F 21.2 °F 21.2 °F 80% 30.14 in 10.0 mi WNW 4.6 mph - N/A   Clear
9:16 PM 26.6 °F 22.6 °F 21.2 °F 80% 30.14 in 10.0 mi West 3.5 mph - N/A   Clear
9:37 PM 24.8 °F 20.5 °F 21.2 °F 86% 30.14 in 10.0 mi South 3.5 mph - N/A   Clear
9:57 PM 23.0 °F 18.4 °F 21.2 °F 93% 30.14 in 10.0 mi SW 3.5 mph - N/A   Clear
10:16 PM 23.0 °F 17.0 °F 19.4 °F 86% 30.14 in 10.0 mi SW 4.6 mph - N/A   Clear
10:37 PM 23.0 °F 15.8 °F 19.4 °F 86% 30.14 in 10.0 mi WSW 5.8 mph - N/A   Clear
10:57 PM 23.0 °F - 19.4 °F 86% 30.14 in 10.0 mi Calm Calm - N/A   Clear
11:16 PM 23.0 °F 17.0 °F 19.4 °F 86% 30.13 in 10.0 mi WSW 4.6 mph - N/A   Clear
11:37 PM 23.0 °F 17.0 °F 19.4 °F 86% 30.12 in 10.0 mi WSW 4.6 mph - N/A   Clear
11:57 PM 23.0 °F - 19.4 °F 86% 30.12 in 10.0 mi Calm Calm - N/A   Clear